TimeCDT,TemperatureF,Dew PointF,Humidity,Sea Level PressureIn,VisibilityMPH,Wind Direction,Wind SpeedMPH,Gust SpeedMPH,PrecipitationIn,Events,Conditions,WindDirDegrees,DateUTC
12:53 AM,80.1,72.0,76,29.94,10.0,Calm,Calm,-,N/A,,Clear,0,2013-08-02 05:53:00
1:53 AM,78.1,72.0,81,29.94,10.0,Calm,Calm,-,N/A,,Clear,0,2013-08-02 06:53:00
2:53 AM,77.0,73.0,88,29.94,9.0,ENE,3.5,-,N/A,,Clear,60,2013-08-02 07:53:00
3:53 AM,75.9,72.0,87,29.95,9.0,Calm,Calm,-,N/A,,Clear,0,2013-08-02 08:53:00
4:53 AM,75.9,72.0,87,29.95,9.0,NE,3.5,-,N/A,,Partly Cloudy,50,2013-08-02 09:53:00
5:53 AM,75.9,72.0,87,29.96,7.0,Calm,Calm,-,N/A,,Clear,0,2013-08-02 10:53:00
6:53 AM,75.9,73.0,91,29.98,5.0,Calm,Calm,-,N/A,,Clear,0,2013-08-02 11:53:00
7:53 AM,80.1,73.9,81,29.98,9.0,East,3.5,-,N/A,,Partly Cloudy,90,2013-08-02 12:53:00
8:53 AM,82.9,73.9,74,29.98,10.0,Calm,Calm,-,N/A,,Partly Cloudy,0,2013-08-02 13:53:00
9:53 AM,87.1,73.0,63,29.99,10.0,Variable,4.6,-,N/A,,Clear,0,2013-08-02 14:53:00
10:53 AM,88.0,72.0,59,29.99,10.0,SE,9.2,-,N/A,,Clear,140,2013-08-02 15:53:00
11:53 AM,91.0,72.0,53,29.99,10.0,Calm,Calm,-,N/A,,Partly Cloudy,0,2013-08-02 16:53:00
12:53 PM,91.9,72.0,52,29.99,10.0,West,4.6,-,N/A,,Scattered Clouds,270,2013-08-02 17:53:00
1:53 PM,91.9,71.1,50,29.98,10.0,Calm,Calm,-,N/A,,Scattered Clouds,0,2013-08-02 18:53:00
2:53 PM,93.9,72.0,49,29.96,10.0,West,6.9,-,N/A,,Mostly Cloudy,270,2013-08-02 19:53:00
3:53 PM,93.9,72.0,49,29.94,10.0,Variable,4.6,-,N/A,,Clear,0,2013-08-02 20:53:00
4:53 PM,95.0,71.1,46,29.94,10.0,Variable,4.6,-,N/A,,Scattered Clouds,0,2013-08-02 21:53:00
5:53 PM,93.9,69.1,44,29.94,10.0,NW,5.8,-,N/A,,Clear,320,2013-08-02 22:53:00
6:53 PM,91.0,71.1,52,29.94,10.0,NW,4.6,-,N/A,,Clear,310,2013-08-02 23:53:00
7:53 PM,89.1,73.0,59,29.95,10.0,Calm,Calm,-,N/A,,Clear,0,2013-08-03 00:53:00
8:53 PM,84.9,73.9,69,29.96,10.0,Calm,Calm,-,N/A,,Clear,0,2013-08-03 01:53:00
9:53 PM,84.0,73.9,72,29.98,10.0,Calm,Calm,-,N/A,,Clear,0,2013-08-03 02:53:00
10:53 PM,82.9,73.9,74,29.98,10.0,Calm,Calm,-,N/A,,Clear,0,2013-08-03 03:53:00
11:53 PM,81.0,73.9,79,29.98,10.0,South,5.8,-,N/A,,Clear,170,2013-08-03 04:53:00